Weather History for Hartford, CT

Change the Weather History Date:

Wednesday, December 7, 2011

  Actual Average Record
Temperature  
Mean Temperature 48 °F -  
Max Temperature 53 °F 45 °F 75 °F (1998)
Min Temperature 42 °F 25 °F 3 °F (1964)
Degree Days  
Heating Degree Days 18    
Moisture  
Dew Point 46 °F    
Average Humidity 100    
Maximum Humidity 100    
Minimum Humidity 100    
Precipitation  
Precipitation 1.92 in - - ()
Sea Level Pressure  
Sea Level Pressure 29.68 in    
Wind  
Wind Speed 5 mph (North)    
Max Wind Speed 18 mph    
Max Gust Speed 23 mph    
Visibility 3 miles    
Events Rain    
Averages and records for this station are not official NWS values.
T = Trace of Precipitation, MM = Missing Value Source: NWS Daily Summary

Daily Weather History Graph

Daily Weather History Graph

Search for Another Location

Airport:

Trip Planner

Search our weather history database for the weather conditions in past years. The results will help you decide how hot, cold, wet, or windy it might be!

Date:

Astronomy

Dec. 07, 2011 Rise Set
Actual Time 7:03 AM EST 4:19 PM EST
Civil Twilight 6:32 AM EST 4:51 PM EST
Nautical Twilight 5:57 AM EST 5:26 PM EST
Astronomical Twilight 5:24 AM EST 5:59 PM EST
Moon 2:20 PM EST (12/7) 4:15 AM EST (12/7)
Length of Visible Light 10h 18m
Length of Day
9h 16m
Waxing Gibbous, 92% of the Moon is Illuminated
Dec 7
Waxing Gibbous
Dec 10
Full
Dec 17
Last Quarter
Dec 24
New
Jan 1
First Quarter

Hourly Weather History & Observations

Time (EST) Temp. Windchill Dew Point Humidity Pressure Visibility Wind Dir Wind Speed Gust Speed Precip Events Conditions
12:53 AM 53.1 °F - - N/A% 29.88 in 5.0 mi Calm Calm - N/A   Haze
1:15 AM 51.8 °F - - N/A% 29.88 in 1.5 mi SSE 3.5 mph - N/A   Overcast
1:32 AM 51.8 °F - - N/A% 29.88 in 3.0 mi Calm Calm - N/A   Overcast
1:53 AM 53.1 °F - - N/A% 29.87 in 4.0 mi ESE 3.5 mph - N/A   Haze
2:13 AM 53.6 °F - - N/A% 29.87 in 2.0 mi SSE 3.5 mph - N/A   Overcast
2:20 AM 53.6 °F - - N/A% 29.86 in 1.2 mi SSE 4.6 mph - N/A   Overcast
2:29 AM 53.6 °F - - N/A% 29.86 in 0.8 mi SSE 4.6 mph - N/A   Overcast
2:53 AM 53.1 °F - - N/A% 29.87 in 0.5 mi South 4.6 mph - 0.00 in Rain Light Rain
3:09 AM 53.6 °F - - N/A% 29.86 in 1.0 mi Calm Calm - 0.03 in Rain Rain
3:40 AM 53.6 °F - - N/A% 29.87 in 1.8 mi Calm Calm - 0.04 in Rain Light Rain
3:51 AM 53.6 °F - - N/A% 29.86 in 1.5 mi Calm Calm - 0.04 in Rain Light Rain
3:53 AM 53.1 °F - - N/A% 29.86 in 1.0 mi Calm Calm - 0.04 in Rain Light Rain
4:01 AM 53.6 °F - - N/A% 29.85 in 0.5 mi Calm Calm - 0.00 in Rain Light Rain
4:53 AM 53.1 °F - - N/A% 29.85 in 3.0 mi NNW 3.5 mph - 0.01 in   Overcast
5:00 AM 53.6 °F - - N/A% 29.85 in 4.0 mi Calm Calm - N/A   Haze
5:53 AM 52.0 °F - 52.0 °F 100% 29.84 in 8.0 mi North 6.9 mph - 0.00 in Rain Light Rain
6:53 AM 51.1 °F - 51.1 °F 100% 29.83 in 6.0 mi NNW 5.8 mph - 0.01 in Rain Light Rain
7:53 AM 51.8 °F - 51.8 °F 100% 29.83 in 7.0 mi NNW 5.8 mph - N/A Rain Light Rain
8:53 AM 50.0 °F - 50.0 °F 100% 29.82 in 4.0 mi Calm Calm - N/A Rain Light Rain
9:05 AM 50.0 °F - 50.0 °F 100% 29.82 in 2.5 mi Calm Calm - 0.02 in Rain Rain
9:24 AM 50.0 °F - 50.0 °F 100% 29.83 in 3.0 mi Calm Calm - 0.04 in Rain Light Rain
9:35 AM 50.0 °F - 50.0 °F 100% 29.83 in 2.5 mi WNW 3.5 mph - 0.06 in Rain Rain
9:49 AM 50.0 °F - 50.0 °F 100% 29.84 in 3.0 mi WNW 4.6 mph - 0.08 in Rain Rain
9:53 AM 50.0 °F - 50.0 °F 100% 29.84 in 2.5 mi WNW 4.6 mph - 0.09 in Rain Rain
10:13 AM 50.0 °F - 50.0 °F 100% 29.83 in 3.0 mi NNW 4.6 mph - 0.03 in Rain Rain
10:53 AM 50.0 °F - 50.0 °F 100% 29.81 in 6.0 mi North 5.8 mph - 0.05 in Rain Light Rain
11:53 AM 48.9 °F - 48.9 °F 100% 29.76 in 6.0 mi NNE 8.1 mph - 0.06 in Rain Light Rain
12:10 PM 48.2 °F - 48.2 °F 100% 29.74 in 10.0 mi NNE 6.9 mph - 0.00 in Rain Light Rain
12:53 PM 48.9 °F - 48.9 °F 100% 29.73 in 5.0 mi North 3.5 mph - 0.02 in Rain Light Rain
1:13 PM 48.2 °F - 48.2 °F 100% 29.72 in 5.0 mi NNW 5.8 mph - 0.00 in Rain Light Rain
1:39 PM 48.2 °F - 48.2 °F 100% 29.71 in 3.0 mi North 5.8 mph - 0.02 in Rain Light Rain
1:53 PM 48.0 °F - 48.0 °F 100% 29.70 in 7.0 mi North 8.1 mph - 0.02 in Rain Light Rain
2:09 PM 48.2 °F - 48.2 °F 100% 29.71 in 4.0 mi North 4.6 mph - 0.01 in Rain Light Rain
2:25 PM 48.2 °F - 48.2 °F 100% 29.70 in 4.0 mi North 4.6 mph - 0.02 in Rain Light Rain
2:53 PM 46.4 °F 43.5 °F 46.4 °F 100% 29.69 in 4.0 mi NNE 5.8 mph - N/A Rain Light Rain
3:53 PM 46.9 °F - 46.9 °F 100% 29.67 in 2.5 mi North 5.8 mph - 0.04 in Rain Rain
4:10 PM 46.4 °F 41.9 °F 46.4 °F 100% 29.65 in 4.0 mi North 9.2 mph - 0.02 in Rain Light Rain
4:42 PM 46.4 °F 43.5 °F 46.4 °F 100% 29.65 in 2.5 mi NNE 5.8 mph - 0.09 in Rain Rain
4:53 PM 46.0 °F 43.9 °F 46.0 °F 100% 29.66 in 2.5 mi North 4.6 mph - 0.11 in Rain Rain
5:04 PM 46.4 °F 41.9 °F 46.4 °F 100% 29.66 in 2.5 mi North 9.2 mph - 0.04 in Rain Heavy Rain
5:07 PM 44.6 °F 40.2 °F 44.6 °F 100% 29.66 in 2.5 mi North 8.1 mph - 0.05 in Rain Heavy Rain
5:30 PM 44.6 °F 40.7 °F - N/A% 29.64 in 4.0 mi North 6.9 mph - 0.11 in Rain Rain
5:53 PM 45.0 °F 39.7 °F 45.0 °F 100% 29.62 in 3.0 mi NNE 10.4 mph - 0.15 in Rain Light Rain
6:14 PM 44.6 °F 40.7 °F 44.6 °F 100% 29.61 in 4.0 mi North 6.9 mph - 0.02 in Rain Rain
6:53 PM 45.0 °F - 45.0 °F 100% 29.60 in 2.5 mi Calm Calm - 0.07 in Rain Rain
7:05 PM 44.6 °F 43.1 °F 44.6 °F 100% 29.59 in 4.0 mi North 3.5 mph - 0.01 in Rain Rain
7:13 PM 44.6 °F 43.1 °F 44.6 °F 100% 29.58 in 4.0 mi North 3.5 mph - 0.02 in Rain Rain
7:25 PM 44.6 °F 43.1 °F 44.6 °F 100% 29.57 in 3.0 mi Variable 3.5 mph - 0.04 in Rain Rain
7:46 PM 44.6 °F 39.7 °F 44.6 °F 100% 29.58 in 4.0 mi NNW 9.2 mph - 0.07 in Rain Light Rain
7:53 PM 45.0 °F 39.3 °F 45.0 °F 100% 29.57 in 2.5 mi North 11.5 mph - 0.11 in Rain Heavy Rain
8:43 PM 44.6 °F 39.2 °F - N/A% 29.56 in 1.8 mi North 10.4 mph - 0.28 in Rain Heavy Rain
8:50 PM 44.6 °F 39.2 °F 44.6 °F 100% 29.55 in 2.0 mi North 10.4 mph - 0.31 in Rain Heavy Rain
8:53 PM 45.0 °F 39.7 °F 45.0 °F 100% 29.55 in 2.0 mi North 10.4 mph - 0.32 in Rain Heavy Rain
9:05 PM 44.6 °F 39.2 °F 44.6 °F 100% 29.54 in 2.5 mi North 10.4 mph - 0.05 in Rain Heavy Rain
9:31 PM 44.6 °F 37.4 °F 44.6 °F 100% 29.50 in 2.5 mi NE 16.1 mph - 0.14 in Rain Heavy Rain
9:53 PM 44.1 °F - 44.1 °F 100% 29.55 in 3.0 mi Calm Calm - 0.23 in Rain Heavy Rain
10:03 PM 44.6 °F 38.1 °F 44.6 °F 100% 29.49 in 2.5 mi NNE 13.8 mph - 0.04 in Rain Heavy Rain
10:10 PM 44.6 °F 39.7 °F 44.6 °F 100% 29.48 in 3.0 mi NNE 9.2 mph - 0.05 in Rain Light Rain
10:23 PM 44.6 °F 39.2 °F 44.6 °F 100% 29.47 in 3.0 mi NNE 10.4 mph - 0.10 in Rain Heavy Rain
10:27 PM 44.6 °F 39.2 °F 44.6 °F 100% 29.47 in 2.5 mi North 10.4 mph - 0.11 in Rain Heavy Rain
10:42 PM 42.8 °F 37.5 °F 42.8 °F 100% 29.48 in 1.8 mi NNW 9.2 mph 20.7 mph 0.23 in Rain Heavy Rain
10:48 PM 42.8 °F 36.6 °F 42.8 °F 100% 29.49 in 2.0 mi NNW 11.5 mph - 0.27 in Rain Heavy Rain
10:53 PM 43.0 °F 36.4 °F 43.0 °F 100% 29.47 in 2.0 mi North 12.7 mph 23.0 mph 0.31 in Rain Heavy Rain
11:04 PM 42.8 °F 35.1 °F 42.8 °F 100% 29.46 in 3.0 mi North 16.1 mph 23.0 mph 0.05 in Rain Heavy Rain
11:32 PM 42.8 °F 34.5 °F 42.8 °F 100% 29.45 in 1.8 mi North 18.4 mph 23.0 mph 0.19 in Rain Heavy Rain
11:36 PM 42.8 °F 36.6 °F 42.8 °F 100% 29.45 in 1.5 mi North 11.5 mph 23.0 mph 0.23 in Rain Heavy Rain
11:47 PM 42.8 °F 36.2 °F 42.8 °F 100% 29.47 in 3.0 mi NW 12.7 mph 18.4 mph 0.27 in Rain Rain
11:53 PM 42.1 °F 34.5 °F 42.1 °F 100% 29.44 in 5.0 mi North 15.0 mph 20.7 mph 0.28 in Rain Rain
11:57 PM 42.8 °F 35.1 °F 42.8 °F 100% 29.43 in 4.0 mi North 16.1 mph 23.0 mph 0.02 in Rain Heavy Rain